| time (UTC) | temp F | wind direction | speed knots | gust knots | rain 1hr in | rain 24hr in | rain mn in | humidity % | barometer mb |
| 20260904214550 | 77 | 294 | 0.0 | 1.7 | 0.00 | 0.00 | 0.00 | 59 | 1008.1 |
| 20260904213050 | 77 | 293 | 0.9 | 3.5 | 0.00 | 0.00 | 0.00 | 60 | 1008.2 |
| 20260904211547 | 78 | 296 | 0.9 | 5.2 | 0.00 | 0.00 | 0.00 | 60 | 1008.2 |
| 20260904210046 | 79 | 295 | 0.9 | 6.1 | 0.00 | 0.00 | 0.00 | 59 | 1008.2 |
| 20260904204546 | 78 | 276 | 1.7 | 3.5 | 0.00 | 0.00 | 0.00 | 59 | 1008.1 |
| 20260904203048 | 78 | 301 | 0.9 | 4.3 | 0.00 | 0.00 | 0.00 | 59 | 1008.2 |
| 20260904201600 | 79 | 324 | 1.7 | 5.2 | 0.00 | 0.00 | 0.00 | 58 | 1008.3 |
| 20260904200050 | 79 | 285 | 1.7 | 7.8 | 0.00 | 0.00 | 0.00 | 55 | 1008.0 |
| 20260904194542 | 80 | 265 | 1.7 | 7.0 | 0.00 | 0.00 | 0.00 | 52 | 1008.1 |
| 20260904193045 | 81 | 298 | 0.0 | 7.0 | 0.00 | 0.00 | 0.00 | 53 | 1007.8 |
| 20260904191541 | 80 | 303 | 1.7 | 6.1 | 0.00 | 0.00 | 0.00 | 55 | 1007.8 |
| 20260904190037 | 80 | 278 | 1.7 | 5.2 | 0.00 | 0.00 | 0.00 | 51 | 1008.1 |
| 20260904184541 | 80 | 294 | 0.9 | 6.1 | 0.00 | 0.00 | 0.00 | 56 | 1008.2 |
| 20260904183033 | 80 | 168 | 0.9 | 10.4 | 0.00 | 0.00 | 0.00 | 56 | 1008.3 |
| 20260904181536 | 79 | 287 | 3.5 | 7.8 | 0.00 | 0.00 | 0.00 | 56 | 1008.3 |
| 20260904180029 | 79 | 300 | 1.7 | 7.8 | 0.00 | 0.00 | 0.00 | 59 | 1008.4 |
| 20260904174528 | 79 | 264 | 2.6 | 7.0 | 0.00 | 0.00 | 0.00 | 58 | 1008.3 |
| 20260904173024 | 78 | 279 | 0.9 | 6.1 | 0.00 | 0.00 | 0.00 | 61 | 1008.4 |
| 20260904171535 | 77 | 297 | 0.0 | 3.5 | 0.00 | 0.00 | 0.00 | 66 | 1008.4 |
| 20260904170020 | 77 | 298 | 1.7 | 4.3 | 0.00 | 0.00 | 0.00 | 67 | 1008.8 |
| 20260904164519 | 78 | 284 | 0.9 | 5.2 | 0.00 | 0.00 | 0.00 | 66 | 1008.7 |
| 20260904163020 | 78 | 294 | 1.7 | 4.3 | 0.00 | 0.00 | 0.00 | 69 | 1008.7 |
| 20260904161517 | 77 | 288 | 1.7 | 4.3 | 0.00 | 0.00 | 0.00 | 70 | 1008.8 |
| 20260904160011 | 77 | 289 | 2.6 | 5.2 | 0.00 | 0.00 | 0.00 | 70 | 1009.1 |
| 20260904154511 | 76 | 296 | 1.7 | 6.1 | 0.00 | 0.00 | 0.00 | 72 | 1009.2 |
| 20260904153007 | 76 | 290 | 0.9 | 6.1 | 0.00 | 0.00 | 0.00 | 75 | 1009.4 |
| 20260904151506 | 76 | 284 | 0.0 | 4.3 | 0.00 | 0.00 | 0.00 | 77 | 1009.4 |
| 20260904150004 | 75 | 292 | 1.7 | 6.1 | 0.00 | 0.00 | 0.00 | 77 | 1009.4 |
| 20260904144619 | 74 | 291 | 0.0 | 4.3 | 0.00 | 0.00 | 0.00 | 79 | 1009.6 |
| 20260904143058 | 74 | 301 | 0.0 | 3.5 | 0.00 | 0.00 | 0.00 | 82 | 1009.8 |
| 20260904141559 | 73 | 296 | 0.9 | 4.3 | 0.00 | 0.00 | 0.00 | 84 | 1009.8 |
| 20260904140050 | 71 | 286 | 0.0 | 3.5 | 0.00 | 0.00 | 0.00 | 89 | 1009.9 |
| 20260904134547 | 70 | 291 | 0.0 | 1.7 | 0.00 | 0.00 | 0.00 | 92 | 1009.9 |
| 20260904133042 | 69 | 293 | 0.0 | 1.7 | 0.00 | 0.00 | 0.00 | 94 | 1009.9 |
| 20260904131538 | 67 | 295 | 0.0 | 1.7 | 0.00 | 0.00 | 0.00 | 98 | 1010.1 |
| 20260904130036 | 66 | 295 | 0.9 | 2.6 | 0.00 | 0.00 | 0.00 | 99 | 1010.0 |
| 20260904124544 | 66 | 296 | 0.0 | 1.7 | 0.00 | 0.00 | 0.00 | 99 | 1010.0 |
| 20260904123033 | 65 | 297 | 0.0 | 0.9 | 0.00 | 0.00 | 0.00 | 99 | 1010.0 |
| 20260904121533 | 64 | 297 | 0.9 | 2.6 | 0.00 | 0.00 | 0.00 | 99 | 1010.0 |
| 20260904120031 | 64 | 297 | 0.0 | 0.9 | 0.00 | 0.00 | 0.00 | 99 | 1009.9 |
| 20260904114538 | 64 | 297 | 0.0 | 0.0 | 0.00 | 0.00 | 0.00 | 99 | 1009.9 |
| 20260904113039 | 64 | 297 | 0.0 | 0.0 | 0.00 | 0.00 | 0.00 | 99 | 1009.9 |
| 20260904111530 | 64 | 297 | 0.0 | 1.7 | 0.00 | 0.00 | 0.00 | 99 | 1009.9 |
| 20260904110030 | 64 | 297 | 0.0 | 1.7 | 0.00 | 0.00 | 0.00 | 99 | 1009.9 |
| 20260904104532 | 64 | 304 | 0.0 | 0.0 | 0.00 | 0.00 | 0.00 | 99 | 1009.8 |
| 20260904103036 | 64 | 130 | 0.0 | 0.0 | 0.00 | 0.00 | 0.00 | 99 | 1009.6 |
| 20260904101527 | 64 | 130 | 0.0 | 0.0 | 0.00 | 0.00 | 0.00 | 99 | 1009.4 |
| 20260904100026 | 64 | 130 | 0.0 | 0.0 | 0.00 | 0.00 | 0.00 | 99 | 1009.2 |
| 20260904094528 | 64 | 130 | 0.0 | 0.0 | 0.00 | 0.05 | 0.00 | 99 | 1009.4 |
| 20260904093024 | 64 | 130 | 0.0 | 0.0 | 0.00 | 0.05 | 0.00 | 99 | 1009.4 |
| 20260904091523 | 64 | 130 | 0.0 | 0.0 | 0.00 | 0.05 | 0.00 | 99 | 1009.4 |
| 20260904090022 | 64 | 130 | 0.0 | 0.0 | 0.00 | 0.05 | 0.00 | 99 | 1009.4 |
| 20260904084521 | 64 | 130 | 0.0 | 0.0 | 0.00 | 0.08 | 0.00 | 99 | 1009.4 |
| 20260904083020 | 64 | 130 | 0.0 | 0.0 | 0.00 | 0.08 | 0.00 | 99 | 1009.4 |
| 20260904081518 | 64 | 130 | 0.0 | 0.0 | 0.00 | 0.08 | 0.00 | 99 | 1009.6 |
| 20260904080017 | 64 | 130 | 0.0 | 0.0 | 0.00 | 0.08 | 0.00 | 99 | 1009.8 |
| 20260904074517 | 64 | 130 | 0.0 | 0.0 | 0.00 | 0.08 | 0.00 | 99 | 1009.8 |
| 20260904073015 | 64 | 130 | 0.0 | 0.0 | 0.00 | 0.08 | 0.00 | 99 | 1009.7 |
| 20260904071514 | 64 | 130 | 0.0 | 0.0 | 0.00 | 0.08 | 0.00 | 99 | 1009.7 |
| 20260904070015 | 64 | 130 | 0.0 | 0.0 | 0.00 | 0.08 | 0.00 | 99 | 1009.8 |
| 20260904064512 | 64 | 130 | 0.0 | 0.0 | 0.00 | 0.08 | 0.00 | 99 | 1009.9 |
| 20260904063011 | 64 | 130 | 0.0 | 0.0 | 0.00 | 0.08 | 0.00 | 99 | 1010.1 |
| 20260904061512 | 64 | 130 | 0.0 | 0.0 | 0.00 | 0.08 | 0.00 | 99 | 1010.1 |
| 20260904060007 | 64 | 130 | 0.0 | 0.0 | 0.00 | 0.08 | 0.00 | 99 | 1010.4 |
| 20260904054507 | 65 | 130 | 0.0 | 0.0 | 0.00 | 0.08 | 0.00 | 99 | 1010.6 |
| 20260904053005 | 65 | 130 | 0.0 | 0.0 | 0.00 | 0.08 | 0.00 | 99 | 1010.8 |
| 20260904051509 | 65 | 130 | 0.0 | 1.7 | 0.00 | 0.08 | 0.00 | 99 | 1010.9 |
| 20260904050003 | 65 | 130 | 0.0 | 1.7 | 0.00 | 0.08 | 0.00 | 99 | 1010.8 |
| 20260904044602 | 65 | 132 | 0.0 | 2.6 | 0.00 | 0.08 | 0.00 | 98 | 1010.9 |
| 20260904043119 | 65 | 168 | 0.0 | 0.9 | 0.00 | 0.08 | 0.00 | 98 | 1011.0 |
| 20260904041559 | 65 | 170 | 0.0 | 2.6 | 0.00 | 0.08 | 0.00 | 98 | 1011.2 |
| 20260904040054 | 65 | 135 | 0.0 | 3.5 | 0.00 | 0.08 | 0.00 | 98 | 1011.3 |
| 20260904034554 | 66 | 123 | 0.0 | 1.7 | 0.00 | 0.08 | 0.08 | 98 | 1011.2 |
| 20260904033054 | 66 | 92 | 0.0 | 0.0 | 0.00 | 0.08 | 0.08 | 98 | 1011.4 |
| 20260904031555 | 67 | 92 | 0.0 | 0.0 | 0.00 | 0.08 | 0.08 | 98 | 1011.2 |
| 20260904030052 | 67 | 92 | 0.0 | 0.0 | 0.00 | 0.08 | 0.08 | 98 | 1011.3 |
| 20260904024554 | 67 | 92 | 0.0 | 1.7 | 0.00 | 0.08 | 0.08 | 97 | 1011.3 |
| 20260904023054 | 67 | 87 | 0.0 | 0.9 | 0.00 | 0.08 | 0.08 | 98 | 1011.5 |
| 20260904021556 | 68 | 359 | 0.0 | 0.9 | 0.00 | 0.08 | 0.08 | 98 | 1011.6 |
| 20260904020050 | 67 | 355 | 0.0 | 0.0 | 0.00 | 0.08 | 0.08 | 97 | 1011.6 |
| 20260904014630 | 68 | 355 | 0.0 | 0.0 | 0.00 | 0.08 | 0.08 | 97 | 1011.7 |
| 20260904013056 | 68 | 355 | 0.0 | 0.0 | 0.00 | 0.08 | 0.08 | 97 | 1011.8 |
| 20260904011549 | 68 | 355 | 0.0 | 0.0 | 0.00 | 0.08 | 0.08 | 97 | 1012.0 |
| 20260904010050 | 68 | 355 | 0.0 | 0.0 | 0.00 | 0.08 | 0.08 | 96 | 1011.9 |
| 20260904004548 | 68 | 355 | 0.0 | 0.0 | 0.00 | 0.08 | 0.08 | 96 | 1011.7 |
| 20260904003050 | 68 | 355 | 0.0 | 0.9 | 0.00 | 0.08 | 0.08 | 96 | 1011.4 |
| 20260904001548 | 69 | 355 | 0.0 | 0.9 | 0.00 | 0.08 | 0.08 | 96 | 1011.2 |
| 20260904000130 | 69 | 355 | 0.0 | 0.9 | 0.00 | 0.08 | 0.08 | 95 | 1011.1 |
| 20260903234550 | 69 | 355 | 0.0 | 0.0 | 0.00 | 0.08 | 0.08 | 94 | 1011.1 |
| 20260903233046 | 70 | 355 | 0.0 | 0.0 | 0.00 | 0.08 | 0.08 | 94 | 1011.0 |
| 20260903231548 | 71 | 355 | 0.0 | 0.9 | 0.00 | 0.08 | 0.08 | 92 | 1011.1 |
| 20260903230047 | 72 | 355 | 0.0 | 0.0 | 0.00 | 0.08 | 0.08 | 90 | 1011.4 |
| 20260903224550 | 73 | 355 | 0.0 | 0.9 | 0.00 | 0.08 | 0.08 | 89 | 1011.0 |
| 20260903223040 | 73 | 340 | 0.0 | 0.0 | 0.00 | 0.08 | 0.08 | 88 | 1011.2 |
| 20260903221539 | 73 | 340 | 0.0 | 0.0 | 0.00 | 0.08 | 0.08 | 87 | 1011.7 |